| time (UTC) | temp C | wind direction | speed KPH | gust KPH | rain 1hr cm | rain 24hr cm | rain mn cm | humidity % | barometer mb |
| 20260902013404 | 21 | 283 | 0.0 | 0.0 | 0.00 | 0.81 | 0.79 | 67 | 1008.6 |
| 20260902005904 | 23 | 225 | 1.6 | 3.2 | 0.00 | 0.84 | 0.79 | 57 | 1008.4 |
| 20260902004904 | 24 | 253 | 1.6 | 3.2 | 0.00 | 0.84 | 0.79 | 55 | 1008.4 |
| 20260902003904 | 24 | 251 | 0.0 | 4.8 | 0.00 | 0.84 | 0.79 | 52 | 1008.5 |
| 20260902003404 | 24 | 246 | 0.0 | 4.8 | 0.00 | 0.84 | 0.79 | 51 | 1008.5 |
| 20260902001903 | 23 | 225 | 1.6 | 4.8 | 0.00 | 0.84 | 0.79 | 57 | 1008.8 |
| 20260902001404 | 23 | 216 | 0.0 | 4.8 | 0.00 | 0.84 | 0.79 | 58 | 1008.7 |
| 20260902000904 | 23 | 190 | 0.0 | 4.8 | 0.00 | 0.84 | 0.79 | 57 | 1008.8 |
| 20260901235905 | 23 | 185 | 3.2 | 4.8 | 0.00 | 0.86 | 0.79 | 56 | 1009.0 |
| 20260901234404 | 23 | 214 | 1.6 | 4.8 | 0.00 | 0.89 | 0.79 | 56 | 1009.0 |
| 20260901233904 | 24 | 265 | 0.0 | 0.0 | 0.00 | 0.89 | 0.79 | 56 | 1009.0 |
| 20260901233404 | 24 | 265 | 0.0 | 0.0 | 0.00 | 0.89 | 0.79 | 55 | 1009.0 |
| 20260901231903 | 25 | 284 | 0.0 | 4.8 | 0.00 | 0.89 | 0.79 | 51 | 1009.0 |
| 20260901231404 | 25 | 277 | 0.0 | 3.2 | 0.00 | 0.89 | 0.79 | 51 | 1009.0 |
| 20260901230404 | 25 | 13 | 1.6 | 4.8 | 0.00 | 0.89 | 0.79 | 50 | 1009.1 |
| 20260901223904 | 26 | 319 | 1.6 | 12.9 | 0.00 | 0.89 | 0.79 | 41 | 1009.4 |
| 20260901223404 | 26 | 247 | 6.4 | 12.9 | 0.00 | 0.89 | 0.79 | 41 | 1009.3 |
| 20260901222404 | 26 | 194 | 3.2 | 8.0 | 0.00 | 0.89 | 0.79 | 41 | 1009.4 |
| 20260901221904 | 25 | 214 | 1.6 | 8.0 | 0.00 | 0.89 | 0.79 | 42 | 1009.4 |
| 20260901220904 | 25 | 207 | 0.0 | 4.8 | 0.00 | 0.89 | 0.79 | 45 | 1009.6 |
| 20260901215404 | 25 | 334 | 3.2 | 12.9 | 0.00 | 0.89 | 0.79 | 41 | 1009.7 |
| 20260901211904 | 26 | 166 | 6.4 | 12.9 | 0.00 | 0.89 | 0.79 | 44 | 1009.9 |
| 20260901211403 | 26 | 241 | 3.2 | 14.5 | 0.00 | 0.89 | 0.79 | 44 | 1009.8 |
| 20260901210904 | 26 | 220 | 3.2 | 14.5 | 0.00 | 0.89 | 0.79 | 47 | 1009.8 |
| 20260901210404 | 25 | 259 | 8.0 | 14.5 | 0.00 | 0.89 | 0.79 | 46 | 1009.9 |
| 20260901205404 | 26 | 194 | 4.8 | 19.3 | 0.00 | 0.89 | 0.79 | 46 | 1010.0 |
| 20260901204904 | 26 | 221 | 6.4 | 14.5 | 0.00 | 0.89 | 0.79 | 45 | 1010.0 |
| 20260901202904 | 25 | 190 | 3.2 | 16.1 | 0.00 | 0.89 | 0.79 | 48 | 1010.4 |
| 20260901202404 | 25 | 166 | 6.4 | 11.3 | 0.00 | 0.89 | 0.79 | 44 | 1010.3 |
| 20260901200904 | 25 | 247 | 4.8 | 11.3 | 0.00 | 0.89 | 0.79 | 43 | 1010.4 |
| 20260901200404 | 25 | 211 | 3.2 | 11.3 | 0.00 | 0.89 | 0.79 | 46 | 1010.3 |
| 20260901195904 | 25 | 204 | 4.8 | 11.3 | 0.00 | 0.89 | 0.79 | 47 | 1010.4 |
| 20260901194404 | 25 | 248 | 3.2 | 14.5 | 0.00 | 0.89 | 0.79 | 47 | 1010.3 |
| 20260901193904 | 25 | 141 | 6.4 | 14.5 | 0.00 | 0.89 | 0.79 | 44 | 1010.3 |
| 20260901192904 | 24 | 159 | 4.8 | 11.3 | 0.00 | 0.89 | 0.79 | 50 | 1010.5 |
| 20260901192404 | 23 | 191 | 1.6 | 4.8 | 0.00 | 0.89 | 0.79 | 54 | 1010.5 |
| 20260901190904 | 23 | 80 | 1.6 | 4.8 | 0.00 | 0.89 | 0.79 | 60 | 1010.6 |
| 20260901190404 | 23 | 299 | 3.2 | 4.8 | 0.00 | 0.89 | 0.79 | 59 | 1010.8 |
| 20260901184904 | 23 | 85 | 1.6 | 4.8 | 0.00 | 0.89 | 0.79 | 62 | 1010.9 |
| 20260901183404 | 22 | 292 | 1.6 | 4.8 | 0.00 | 0.89 | 0.79 | 65 | 1011.1 |
| 20260901181904 | 21 | 253 | 1.6 | 4.8 | 0.00 | 0.89 | 0.79 | 67 | 1011.2 |
| 20260901181404 | 21 | 302 | 0.0 | 4.8 | 0.00 | 0.89 | 0.79 | 67 | 1011.3 |
| 20260901180904 | 21 | 39 | 1.6 | 4.8 | 0.00 | 0.89 | 0.79 | 68 | 1011.4 |
| 20260901180404 | 21 | 221 | 0.0 | 4.8 | 0.00 | 0.89 | 0.79 | 71 | 1011.5 |
| 20260901174404 | 20 | 205 | 3.2 | 4.8 | 0.00 | 0.89 | 0.79 | 69 | 1011.7 |
| 20260901173404 | 20 | 165 | 1.6 | 4.8 | 0.00 | 0.89 | 0.79 | 71 | 1011.6 |
| 20260901171904 | 18 | 209 | 1.6 | 4.8 | 0.00 | 0.89 | 0.79 | 77 | 1011.8 |
| 20260901171403 | 18 | 218 | 1.6 | 4.8 | 0.00 | 0.89 | 0.79 | 77 | 1011.7 |
| 20260901170904 | 18 | 245 | 1.6 | 3.2 | 0.00 | 0.89 | 0.79 | 79 | 1011.6 |
| 20260901170404 | 18 | 271 | 1.6 | 4.8 | 0.00 | 0.89 | 0.79 | 81 | 1011.4 |
| 20260901165404 | 18 | 287 | 1.6 | 4.8 | 0.00 | 0.89 | 0.79 | 82 | 1011.4 |
| 20260901164404 | 17 | 123 | 1.6 | 3.2 | 0.00 | 0.89 | 0.79 | 85 | 1011.3 |
| 20260901163904 | 17 | 268 | 0.0 | 4.8 | 0.00 | 0.89 | 0.79 | 85 | 1011.2 |
| 20260901162404 | 17 | 172 | 1.6 | 4.8 | 0.00 | 0.89 | 0.79 | 86 | 1011.3 |
| 20260901161904 | 16 | 259 | 1.6 | 4.8 | 0.00 | 0.89 | 0.79 | 86 | 1011.3 |
| 20260901161404 | 16 | 30 | 1.6 | 4.8 | 0.00 | 0.89 | 0.79 | 86 | 1011.2 |
| 20260901160404 | 16 | 5 | 1.6 | 4.8 | 0.00 | 0.89 | 0.79 | 87 | 1011.2 |
| 20260901155904 | 16 | 31 | 0.0 | 4.8 | 0.00 | 0.89 | 0.79 | 87 | 1011.3 |
| 20260901154904 | 15 | 230 | 1.6 | 3.2 | 0.00 | 0.89 | 0.79 | 87 | 1011.3 |
| 20260901153904 | 15 | 0 | 0.0 | 1.6 | 0.00 | 0.89 | 0.79 | 87 | 1011.4 |
| 20260901153404 | 15 | 0 | 0.0 | 3.2 | 0.00 | 0.89 | 0.79 | 87 | 1011.4 |
| 20260901152903 | 15 | 0 | 0.0 | 3.2 | 0.00 | 0.89 | 0.79 | 87 | 1011.4 |
| 20260901152404 | 15 | 0 | 1.6 | 3.2 | 0.00 | 0.89 | 0.79 | 87 | 1011.4 |
| 20260901151404 | 15 | 0 | 0.0 | 3.2 | 0.00 | 0.89 | 0.79 | 87 | 1011.4 |
| 20260901145404 | 15 | 0 | 0.0 | 3.2 | 0.00 | 0.89 | 0.79 | 87 | 1011.1 |
| 20260901144903 | 15 | 0 | 0.0 | 3.2 | 0.00 | 0.89 | 0.79 | 87 | 1011.1 |
| 20260901144404 | 15 | 0 | 0.0 | 3.2 | 0.00 | 0.89 | 0.79 | 87 | 1011.1 |
| 20260901143904 | 15 | 0 | 0.0 | 0.0 | 0.00 | 0.89 | 0.79 | 87 | 1011.2 |
| 20260901143403 | 15 | 0 | 0.0 | 0.0 | 0.00 | 0.89 | 0.79 | 87 | 1011.2 |
| 20260901142904 | 15 | 0 | 0.0 | 0.0 | 0.00 | 0.89 | 0.79 | 87 | 1011.1 |
| 20260901141904 | 15 | 0 | 1.6 | 3.2 | 0.00 | 0.89 | 0.79 | 87 | 1011.0 |
| 20260901141404 | 14 | 0 | 0.0 | 0.0 | 0.00 | 0.89 | 0.79 | 87 | 1010.8 |
| 20260901133904 | 15 | 0 | 1.6 | 3.2 | 0.03 | 0.89 | 0.79 | 87 | 1010.2 |
| 20260901132905 | 15 | 0 | 0.0 | 3.2 | 0.03 | 0.89 | 0.79 | 87 | 1009.9 |
| 20260901131903 | 15 | 0 | 0.0 | 1.6 | 0.03 | 0.89 | 0.79 | 87 | 1010.0 |
| 20260901130404 | 14 | 0 | 0.0 | 1.6 | 0.03 | 0.89 | 0.79 | 87 | 1010.5 |
| 20260901125904 | 14 | 0 | 0.0 | 1.6 | 0.03 | 0.89 | 0.79 | 87 | 1010.4 |
| 20260901125404 | 14 | 0 | 0.0 | 3.2 | 0.00 | 0.86 | 0.76 | 87 | 1010.7 |
| 20260901124404 | 15 | 0 | 0.0 | 1.6 | 0.03 | 0.86 | 0.76 | 87 | 1010.6 |
| 20260901122903 | 14 | 0 | 0.0 | 1.6 | 0.05 | 0.86 | 0.76 | 87 | 1010.2 |
| 20260901121904 | 14 | 0 | 0.0 | 1.6 | 0.05 | 0.86 | 0.76 | 87 | 1010.3 |
| 20260901115404 | 14 | 0 | 0.0 | 3.2 | 0.08 | 0.86 | 0.76 | 87 | 1010.2 |
| 20260901114404 | 14 | 0 | 0.0 | 1.6 | 0.05 | 0.84 | 0.74 | 87 | 1010.4 |
| 20260901112904 | 14 | 0 | 1.6 | 4.8 | 0.03 | 0.81 | 0.71 | 87 | 1010.6 |
| 20260901112404 | 14 | 0 | 1.6 | 4.8 | 0.03 | 0.81 | 0.71 | 87 | 1010.5 |
| 20260901111404 | 14 | 0 | 0.0 | 4.8 | 0.03 | 0.81 | 0.71 | 87 | 1010.4 |
| 20260901104903 | 15 | 0 | 3.2 | 4.8 | 0.03 | 0.79 | 0.69 | 87 | 1010.5 |
| 20260901104404 | 15 | 0 | 0.0 | 1.6 | 0.05 | 0.79 | 0.69 | 87 | 1010.4 |
| 20260901102904 | 15 | 0 | 0.0 | 3.2 | 0.05 | 0.79 | 0.69 | 87 | 1010.3 |
| 20260901100904 | 15 | 0 | 0.0 | 0.0 | 0.05 | 0.79 | 0.69 | 87 | 1010.7 |
| 20260901100404 | 15 | 0 | 0.0 | 0.0 | 0.05 | 0.79 | 0.69 | 86 | 1010.8 |
| 20260901095404 | 15 | 0 | 0.0 | 1.6 | 0.05 | 0.79 | 0.69 | 86 | 1010.9 |
| 20260901093404 | 15 | 0 | 1.6 | 3.2 | 0.43 | 0.74 | 0.64 | 86 | 1011.1 |
| 20260901091903 | 15 | 0 | 0.0 | 4.8 | 0.58 | 0.74 | 0.64 | 86 | 1011.4 |
| 20260901090904 | 14 | 0 | 1.6 | 4.8 | 0.64 | 0.74 | 0.64 | 86 | 1011.3 |
| 20260901090404 | 14 | 0 | 0.0 | 14.5 | 0.64 | 0.74 | 0.64 | 86 | 1011.3 |
| 20260901084404 | 15 | 0 | 8.0 | 16.1 | 0.43 | 0.53 | 0.43 | 85 | 1010.7 |
| 20260901083404 | 16 | 0 | 6.4 | 14.5 | 0.20 | 0.30 | 0.20 | 86 | 1010.1 |
| 20260901082904 | 16 | 0 | 3.2 | 4.8 | 0.13 | 0.23 | 0.13 | 85 | 1010.0 |
| 20260901081404 | 15 | 0 | 1.6 | 3.2 | 0.00 | 0.10 | 0.00 | 85 | 1010.2 |
| 20260901080904 | 15 | 0 | 1.6 | 3.2 | 0.00 | 0.10 | 0.00 | 85 | 1010.0 |
| 20260901080404 | 15 | 0 | 0.0 | 1.6 | 0.00 | 0.10 | 0.00 | 85 | 1009.4 |
| 20260901075904 | 15 | 0 | 0.0 | 1.6 | 0.00 | 0.10 | 0.00 | 84 | 1009.3 |
| 20260901074904 | 15 | 0 | 0.0 | 1.6 | 0.00 | 0.10 | 0.00 | 84 | 1009.4 |
| 20260901073904 | 15 | 0 | 0.0 | 1.6 | 0.00 | 0.10 | 0.00 | 84 | 1009.6 |
| 20260901070903 | 16 | 0 | 0.0 | 1.6 | 0.00 | 0.10 | 0.00 | 83 | 1009.7 |
| 20260901065903 | 16 | 0 | 3.2 | 4.8 | 0.00 | 0.10 | 0.00 | 82 | 1009.7 |
| 20260901065404 | 16 | 0 | 0.0 | 3.2 | 0.00 | 0.10 | 0.00 | 82 | 1009.6 |
| 20260901064404 | 15 | 0 | 0.0 | 4.8 | 0.00 | 0.10 | 0.00 | 82 | 1009.4 |
| 20260901063404 | 15 | 0 | 0.0 | 1.6 | 0.00 | 0.10 | 0.00 | 82 | 1009.3 |
| 20260901062904 | 15 | 0 | 0.0 | 3.2 | 0.00 | 0.10 | 0.00 | 82 | 1009.3 |
| 20260901061404 | 15 | 0 | 0.0 | 0.0 | 0.00 | 0.10 | 0.00 | 83 | 1009.2 |
| 20260901060903 | 15 | 0 | 0.0 | 0.0 | 0.00 | 0.10 | 0.00 | 82 | 1009.1 |
| 20260901054904 | 15 | 0 | 0.0 | 4.8 | 0.03 | 0.10 | 0.10 | 81 | 1009.0 |
| 20260901053904 | 16 | 0 | 0.0 | 4.8 | 0.03 | 0.10 | 0.10 | 82 | 1009.0 |
| 20260901052404 | 16 | 0 | 0.0 | 3.2 | 0.03 | 0.10 | 0.10 | 80 | 1009.2 |
| 20260901051903 | 16 | 0 | 1.6 | 3.2 | 0.03 | 0.10 | 0.10 | 80 | 1009.2 |
| 20260901051403 | 16 | 0 | 0.0 | 4.8 | 0.03 | 0.10 | 0.10 | 79 | 1009.2 |
| 20260901045404 | 16 | 29 | 1.6 | 8.0 | 0.03 | 0.10 | 0.10 | 77 | 1010.1 |
| 20260901042404 | 16 | 142 | 4.8 | 11.3 | 0.00 | 0.08 | 0.08 | 76 | 1009.9 |
| 20260901041904 | 16 | 141 | 4.8 | 11.3 | 0.00 | 0.08 | 0.08 | 76 | 1009.6 |
| 20260901040404 | 16 | 88 | 0.0 | 4.8 | 0.00 | 0.08 | 0.08 | 74 | 1008.9 |
| 20260901035404 | 17 | 55 | 3.2 | 11.3 | 0.00 | 0.08 | 0.08 | 75 | 1009.3 |
| 20260901033403 | 17 | 139 | 1.6 | 4.8 | 0.00 | 0.08 | 0.08 | 71 | 1009.2 |
| 20260901031904 | 17 | 148 | 4.8 | 9.7 | 0.00 | 0.08 | 0.08 | 75 | 1009.5 |
| 20260901031404 | 17 | 143 | 3.2 | 4.8 | 0.00 | 0.08 | 0.08 | 76 | 1009.5 |
| 20260901025904 | 16 | 138 | 3.2 | 12.9 | 0.00 | 0.08 | 0.08 | 79 | 1009.2 |
| 20260901025404 | 16 | 146 | 6.4 | 12.9 | 0.00 | 0.08 | 0.08 | 80 | 1009.0 |
| 20260901024403 | 17 | 137 | 3.2 | 8.0 | 0.00 | 0.08 | 0.08 | 81 | 1008.6 |
| 20260901023904 | 17 | 144 | 3.2 | 8.0 | 0.00 | 0.08 | 0.08 | 82 | 1008.5 |
| 20260901022403 | 16 | 129 | 0.0 | 1.6 | 0.00 | 0.08 | 0.08 | 82 | 1008.0 |
| 20260901015903 | 17 | 99 | 0.0 | 4.8 | 0.03 | 0.08 | 0.08 | 82 | 1008.0 |
| 20260901014403 | 17 | 103 | 1.6 | 3.2 | 0.03 | 0.08 | 0.08 | 80 | 1008.0 |